Location: Unspecified
(39.0670°S, 0.0000°E)
Time: 23:33:06
(UTC+00:00)

ISS - Pass Details

Date: 23 June 2019
Orbit: 409 x 418 km, 51.6° (Epoch: 20 July)

Event Time Altitude Azimuth Distance (km) Brightness Sun altitude
Rises 16:59:54 0° 354° (N) 2,360 0.6 -3.4°
Reaches altitude 10° 17:02:53 10° 24° (NNE) 1,508 -0.9 -3.9°
Maximum altitude 17:04:29 13° 52° (NE) 1,352 -1.4 -4.2°
Drops below altitude 10° 17:06:05 10° 80° (E) 1,519 -1.4 -4.5°
Enters shadow 17:07:43 - 99° (E) 1,936 -1.0 -4.7°
